sat.trackr.live / text

‹ back to catalog

STARLINK-37595

NORAD 69847 · 2026-154AE

PAYLOAD ACTIVE UNKNOWN

§ Identity

Operator
Country
US
Launch date
2026-07-05
Launch site
AFETR
Launch vehicle
Mass (kg)
RCS (m²)

Purposes: comms

External: N2YO · Heavens-Above · Gunter

§ Orbital elements

Epoch: 2026-09-19T18:33:23.702400Z

Period
93.85 min
Inclination
53.1577°
Eccentricity
0.0000522
Mean motion
15.34397200 rev/d
Perigee alt
462.4 km
Apogee alt
463.1 km
Semi-major
6,840.8 km
B*
2.4283e-4
RAAN
335.3145°
Arg perigee
84.1683°
Mean anomaly
275.9379°
Rev number
1,312

§ Raw data

STARLINK-375951 69847U 26154AE  26262.77319100  .00007837  00000+0  24283-3 0  99942 69847  53.1577 335.3145 0000522  84.1683 275.9379 15.34397200 13120

JSON: /api/v1/satellites/69847 · /tle

For live sub-satellite position, see the globe view (requires WebGL).

§ Visibility from observer

Set your observer location to see the next 7 days of passes ≥ 10°. The values pass through the URL so the page stays shareable.

No JS? Fill the form by hand. The geolocation button needs JavaScript.